Theta_e
284 285 288 286 286 286 285 287 283 286 287 288 289 291 293 293 293 292 292 291 291 289 286 284 282 281 281 281 281 281 280 279 279 280 280 279 279 279 279 279 279 279 278 278
281 284 286 285 288 288 289 288 288 288 287 293 291 292 293 294 293 292 292 292 291 287 284 282 282 281 281 279 280 280 278 278 279 278 278 278 278 277 277 277 277 278 277 277
279 280 280 273 282 287 288 289 289 285 290 290 289 291 292 293 294 293 293 293 289 285 284 283 282 281 280 279 279 278 278 278 278 278 277 277 277 277 276 276 276 276 275 276
277 270 271 281 284 288 288 289 291 291 290 290 290 292 294 295 294 294 294 293 289 285 284 282 281 280 280 279 278 278 277 277 277 277 276 276 275 275 275 275 275 275 274 275
272 274 276 280 282 284 285 285 291 291 292 289 290 291 289 296 296 295 295 293 288 285 284 282 280 280 279 278 278 277 276 276 276 276 276 275 275 274 274 274 274 274 275 274
273 270 265 279 282 286 287 278 284 286 291 287 288 284 286 293 295 295 294 291 284 283 283 281 278 279 278 277 277 276 276 276 276 275 275 274 274 274 274 274 275 275 275 275
274 267 273 282 283 286 275 279 283 284 286 288 287 289 289 292 291 292 287 284 283 282 282 281 278 278 277 276 276 276 276 275 274 274 274 273 273 273 273 273 273 273 274 274
269 273 271 283 283 281 284 283 283 283 284 286 287 287 288 287 284 282 281 281 280 279 280 279 278 278 277 276 275 274 273 273 272 271 273 273 271 272 272 272 271 271 272 272
277 278 284 284 284 285 285 284 283 283 284 286 286 285 284 282 280 280 279 279 279 278 277 277 277 277 276 275 273 272 270 268 268 270 272 273 270 271 269 270 269 270 270 269
279 282 282 284 283 284 285 284 284 284 284 285 285 283 282 280 280 279 278 276 275 275 274 274 273 275 275 272 271 268 266 267 268 268 268 269 271 271 269 267 267 269 268 267
275 280 281 283 282 284 283 283 283 283 283 285 284 283 281 279 278 277 276 275 275 275 274 272 271 270 269 269 268 267 267 268 269 268 267 267 269 268 269 269 269 264 263 265
275 280 282 281 279 281 282 282 282 283 282 283 284 282 280 277 277 276 275 273 272 271 271 270 268 267 264 265 266 266 267 267 267 266 265 266 265 265 271 273 274 275 275 272
277 277 279 279 278 278 279 278 278 279 280 282 280 280 278 275 273 273 271 272 272 272 269 267 266 265 261 261 263 263 263 264 264 265 264 263 264 263 262 265 270 271 272 273
277 278 277 278 277 280 279 277 275 272 272 274 273 272 271 272 269 272 272 271 268 267 266 266 264 264 262 259 259 258 259 264 264 264 263 262 263 263 263 261 261 262 266 268
274 272 274 273 271 270 269 270 270 271 270 270 268 272 273 272 271 270 265 265 265 264 261 262 262 263 259 259 260 260 261 262 260 261 264 264 262 262 261 260 259 259 259 263
262 262 264 267 266 265 265 266 269 268 267 266 266 266 265 266 265 264 263 264 267 267 265 263 263 260 260 260 261 260 259 262 263 263 263 262 262 262 261 260 259 258 258 258
266 268 265 266 265 264 267 264 266 267 265 266 267 264 264 263 260 260 259 258 258 261 263 264 264 262 262 262 262 261 260 261 263 261 261 261 260 260 259 256 256 256 258 259
264 263 262 265 266 265 264 261 263 265 266 265 263 264 264 267 268 263 260 258 259 260 259 262 263 262 261 260 261 261 263 262 261 261 262 261 261 260 257 257 256 256 258 259
260 263 260 262 261 263 262 263 263 263 266 267 266 268 265 262 262 260 261 261 260 261 265 263 267 262 261 260 261 262 261 262 262 262 262 261 260 257 256 256 256 257 257 257
259 259 258 260 258 261 263 260 262 263 263 264 263 263 261 260 260 261 261 264 265 264 259 259 264 262 260 261 265 262 262 263 263 263 261 259 258 257 258 258 258 257 256 256
260 258 258 259 260 258 258 258 262 262 259 263 265 263 264 261 259 262 261 263 265 263 264 263 263 262 262 261 263 262 263 263 262 261 259 259 259 259 258 258 257 256 257 257
259 261 259 259 261 261 259 259 262 262 261 260 258 260 262 261 260 261 262 265 264 264 261 261 262 263 263 264 262 262 262 260 260 260 260 259 257 257 257 255 256 256 257 257
260 261 260 261 263 262 258 260 259 261 260 259 261 262 264 264 263 264 265 262 261 263 262 261 263 265 264 259 259 258 258 260 259 258 258 257 256 256 254 255 256 256 256 255
261 261 262 259 259 263 266 261 261 260 262 263 263 261 264 265 264 262 263 264 264 263 261 262 266 266 258 255 255 258 258 259 258 257 257 258 254 254 254 255 255 255 255 254
264 261 261 263 266 265 264 262 264 263 264 263 262 260 261 263 264 261 262 263 265 261 261 264 266 262 254 254 257 257 256 255 254 252 252 251 251 251 252 252 253 254 253 252
264 264 263 263 266 264 263 263 266 262 265 263 262 261 261 262 262 261 261 260 260 259 257 258 258 256 255 255 254 253 253 252 252 251 251 250 251 251 250 251 252 253 252 252
262 263 262 263 262 263 265 266 267 264 263 263 261 260 261 260 261 260 259 258 257 256 256 255 256 255 252 252 251 251 251 250 252 250 248 249 249 250 250 251 252 251 251 251
Wind_Speed
2 2 4 6 5 5 3 4 5 4 4 6 12 14 17 15 15 15 15 13 12 10 9 9 8 7 6 6 6 6 6 5 6 5 5 4 5 5 5 5 5 5 5 5
4 6 5 4 7 6 8 5 5 8 5 5 4 8 12 16 16 16 16 15 12 10 11 11 10 9 8 7 7 7 6 6 6 5 5 5 5 5 5 5 4 4 5 5
4 4 4 6 8 10 8 5 10 9 9 3 4 8 16 17 18 17 18 14 13 13 13 10 11 10 9 8 6 7 6 5 5 5 4 4 4 4 4 3 3 4 5 4
2 3 0 8 1 5 12 3 8 5 3 3 5 2 8 13 18 16 16 14 13 12 11 10 9 9 9 7 7 6 6 5 5 5 4 4 4 4 3 2 2 2 3 4
3 3 5 4 3 5 7 6 11 12 8 5 5 5 1 13 15 18 18 16 15 13 12 8 10 10 10 8 7 6 6 6 5 5 5 4 4 3 2 2 2 1 1 2
2 3 6 6 2 1 3 5 1 2 7 7 5 3 6 9 13 11 13 13 14 14 12 12 8 9 10 8 7 7 6 6 5 4 4 4 3 2 1 0 1 1 2 2
2 2 8 6 3 0 7 6 1 2 2 8 6 5 2 9 7 9 10 13 14 14 13 12 10 9 9 8 7 6 6 6 5 4 4 4 3 2 2 1 1 1 2 2
2 3 8 6 3 7 4 1 2 1 1 4 3 1 5 8 10 12 14 13 10 12 11 11 10 9 8 8 7 6 6 6 5 3 2 3 4 1 1 1 1 2 2 3
8 8 3 5 0 2 3 4 3 1 1 3 6 6 6 6 8 9 11 10 8 11 11 7 7 7 9 7 7 6 5 5 5 4 3 3 2 1 1 1 0 2 1 1
2 5 7 6 4 4 5 5 4 3 2 4 4 7 6 7 8 8 7 8 6 10 10 8 4 4 5 8 7 6 6 5 4 4 3 2 1 1 1 0 1 1 2 2
5 7 6 9 8 6 6 4 4 2 1 5 7 5 6 7 6 7 8 7 9 10 8 6 5 5 5 7 7 6 4 4 3 3 3 2 2 2 2 2 3 3 4 3
7 6 3 2 2 2 7 7 7 5 2 2 6 8 6 7 6 8 8 5 5 5 7 7 6 5 4 5 6 6 5 4 3 3 2 2 2 2 4 6 8 10 10 7
2 1 1 1 0 1 3 3 3 4 3 6 4 6 7 5 4 6 6 7 8 9 6 7 7 6 3 4 6 6 5 4 3 3 2 2 1 2 2 4 7 7 8 10
2 0 4 2 3 4 2 2 4 4 3 3 4 4 4 6 4 8 9 7 6 7 7 8 7 7 6 5 4 4 3 3 3 3 3 2 2 2 2 1 2 3 5 9
4 2 2 1 3 4 3 2 4 4 3 3 2 6 7 8 7 6 5 5 6 5 4 6 6 7 5 6 6 6 4 3 3 2 2 3 2 1 1 2 3 4 3 5
2 4 5 3 2 2 2 1 4 2 1 2 4 4 4 4 5 5 5 7 8 9 7 6 5 5 7 7 6 4 3 4 4 2 2 2 2 2 3 3 3 3 4 4
5 3 1 4 5 4 6 4 4 4 4 4 5 4 5 6 4 3 3 2 3 3 6 7 6 6 7 8 7 3 3 3 4 2 2 2 2 3 3 2 3 4 5 4
3 3 3 4 5 6 4 4 3 5 5 6 5 5 6 7 4 5 5 4 2 1 3 5 5 6 6 6 5 4 4 3 3 3 2 3 3 3 3 3 3 5 6 5
2 2 1 3 3 5 4 5 5 5 7 8 8 8 3 5 4 4 6 5 3 2 5 6 6 6 5 5 5 4 3 4 3 3 3 3 3 2 3 3 5 5 5 5
3 2 1 1 1 1 3 3 4 3 1 4 5 5 4 3 4 4 3 5 5 4 0 2 4 5 5 5 8 4 4 4 3 3 2 3 3 3 4 6 5 4 4 5
4 3 3 4 3 4 4 2 5 4 2 5 6 5 5 3 4 5 3 0 4 3 3 5 4 4 4 5 5 4 4 3 3 3 3 2 3 4 4 4 4 4 6 6
2 3 3 3 4 3 4 3 4 5 4 4 4 4 5 3 3 2 0 2 1 4 3 2 2 5 4 7 3 3 3 3 2 2 2 2 3 4 4 3 5 5 6 7
3 3 3 4 4 5 3 5 4 4 5 3 4 3 3 2 3 3 2 2 3 4 3 3 4 6 7 3 3 3 3 2 2 2 3 2 3 3 3 4 5 6 7 7
3 2 3 2 4 3 6 2 4 4 5 5 5 3 3 3 4 3 3 5 7 5 3 3 6 9 6 3 3 2 2 1 1 2 2 4 2 3 3 5 6 6 6 7
4 3 3 4 5 3 4 4 5 5 7 7 6 5 5 4 4 2 3 4 8 5 4 5 10 8 3 3 2 1 1 0 2 2 3 3 3 3 4 4 5 7 6 6
4 3 3 3 3 3 3 3 4 2 4 6 5 4 4 4 5 5 5 6 5 6 4 4 4 3 3 3 2 1 1 2 2 3 3 4 4 4 5 5 6 7 7 7
3 4 3 3 3 3 3 3 4 3 3 5 6 2 4 4 5 6 6 5 4 4 4 4 4 4 3 2 2 2 2 2 3 3 3 4 4 5 6 6 7 7 7 7
Wind_Direction
292 34 172 192 218 226 145 165 168 210 226 192 194 183 175 162 159 159 168 177 181 176 163 142 138 137 136 131 124 121 113 113 102 93 90 94 84 83 80 72 75 79 73 61
350 345 1 334 182 205 216 257 290 269 284 235 160 114 148 172 174 176 181 186 181 171 156 155 156 154 153 144 138 124 127 118 108 110 107 89 77 74 77 81 85 87 74 70
247 331 21 352 229 189 206 205 214 210 226 171 139 170 172 181 185 184 185 185 175 171 166 164 166 162 158 148 132 131 130 124 122 113 97 97 98 93 89 86 88 83 72 71
210 19 324 238 187 189 201 182 213 244 264 212 219 161 160 186 178 183 182 175 178 165 162 161 154 148 137 143 141 140 126 125 117 127 132 116 107 100 92 81 80 90 81 69
146 200 284 326 235 153 164 262 207 221 219 195 117 82 208 184 184 182 182 174 168 160 153 148 155 150 149 144 140 136 146 142 143 152 141 129 125 114 96 76 75 61 88 74
101 125 190 244 224 360 97 297 358 268 226 158 132 159 238 179 178 172 169 164 151 145 143 146 152 151 142 145 150 160 158 151 146 136 141 136 128 125 128 307 66 35 353 66
194 198 288 244 197 145 91 234 136 40 34 165 195 207 217 142 153 154 147 143 140 148 158 155 145 152 151 150 169 151 144 136 131 146 150 144 132 171 152 139 28 341 310 322
81 90 281 151 88 167 200 103 137 70 270 230 264 123 138 134 138 138 132 138 141 136 145 149 147 156 154 166 143 144 140 136 141 143 155 132 140 158 128 205 240 313 337 342
178 207 252 214 356 176 143 147 192 229 296 262 171 165 150 135 131 135 137 134 132 136 130 135 151 165 163 153 141 137 133 148 166 152 141 147 141 152 120 4 337 318 315 293
51 250 232 237 232 184 190 195 183 202 219 196 185 149 122 119 126 124 125 127 115 124 138 161 157 137 135 142 139 141 152 167 163 163 168 174 166 166 169 230 291 267 273 269
270 278 285 260 236 216 208 188 173 171 218 197 152 145 135 129 126 128 135 137 150 158 161 151 134 136 139 144 141 153 163 173 175 171 179 182 189 197 198 216 199 205 226 221
217 225 170 271 43 326 192 197 201 182 178 126 162 150 129 139 149 151 156 141 123 119 139 161 149 151 157 148 153 154 168 176 177 166 178 182 185 298 293 281 283 271 278 268
230 104 176 123 177 271 173 202 180 171 191 166 144 148 141 133 130 116 121 144 166 174 150 152 163 174 173 156 157 171 169 168 167 163 164 166 183 179 271 319 317 304 310 304
276 26 303 195 201 11 117 73 92 74 60 89 115 77 106 129 129 160 176 176 140 146 162 170 169 190 181 160 135 145 163 162 169 174 167 167 175 202 202 228 280 298 322 317
248 354 171 15 28 12 32 74 84 129 147 120 120 149 151 158 165 178 148 144 132 147 157 158 172 209 168 157 169 178 181 193 174 164 168 169 155 186 224 247 258 272 309 308
22 41 22 66 293 315 50 33 142 226 175 127 130 132 151 131 134 146 156 152 148 194 189 183 196 198 169 171 176 178 187 179 178 170 177 189 199 228 244 252 270 276 287 277
82 328 296 275 219 224 213 199 190 181 152 148 176 149 116 102 89 143 178 138 89 159 188 182 206 171 177 182 176 166 151 169 179 178 202 193 207 231 243 241 254 264 273 267
165 166 200 192 194 202 236 229 186 158 163 181 143 132 142 176 180 149 163 158 142 284 212 211 190 175 173 168 166 152 166 169 172 200 204 221 230 230 228 255 257 271 282 281
193 159 100 165 197 170 179 185 193 174 159 153 152 186 146 88 124 144 148 157 176 225 263 195 194 157 163 167 157 153 162 169 176 205 215 219 240 236 242 246 261 258 266 286
114 106 111 146 20 82 178 244 159 145 91 115 88 91 101 160 157 135 147 199 205 201 217 150 158 142 148 176 168 166 164 181 199 207 196 214 227 246 251 254 260 264 267 268
134 65 66 68 48 19 45 98 113 107 85 106 121 161 186 190 161 144 134 72 312 183 142 131 145 148 152 156 150 158 172 184 186 193 203 222 253 259 264 268 270 263 273 274
119 84 94 99 103 82 19 62 94 120 125 112 92 117 118 108 103 46 15 179 29 114 115 103 109 139 139 148 131 145 146 155 176 195 233 231 239 262 269 257 272 279 278 278
130 148 129 104 123 132 89 52 63 100 107 118 129 128 106 143 147 106 33 4 106 99 104 115 142 132 124 96 113 132 148 171 191 202 227 235 240 246 255 272 278 278 278 279
126 130 130 137 129 95 89 33 83 79 87 79 71 67 105 99 70 45 66 81 108 101 104 112 119 104 97 99 106 120 147 189 221 250 255 270 247 260 260 265 274 276 278 281
130 129 102 96 93 113 131 140 102 79 82 69 60 53 63 28 97 133 90 81 91 82 74 91 110 107 99 114 111 104 92 296 271 269 268 266 264 259 261 262 269 279 281 277
156 157 151 136 134 134 112 78 89 86 107 95 64 42 46 53 75 80 79 83 78 80 72 66 83 86 84 80 73 53 355 310 310 298 281 269 266 268 268 270 281 287 285 285
83 104 95 62 42 74 92 102 109 81 76 101 99 44 78 70 82 89 90 89 86 85 80 68 68 72 75 65 36 357 324 302 292 283 276 280 280 275 282 284 286 282 281 278